STARLINK-2012 (47635 NORAD) Tracking and Keplerian Element Data
This shows tracking and keplerian element data for the satellite.
Feedback or suggestion? Click here.
Element | Value |
Catalog | 47635 |
Name | STARLINK-2012 |
Epoch Orbit | 282 |
Epoch Day | 60.16668981 |
Epoch Year | 2021 |
RAAN | 36.7867 |
Inclination | 53.05 |
Eccentricity | 0.000215 |
Argument of Perigee | 91.8656 |
Mean Anonmoly | 49.7798 |
Mean Motion | 15.86733893 |
Decay Rate | 0.00052512 |
L1 | 1 47635U 21012R 21060.16668981 .00052512 00000-0 20307-3 0 9995 |
L2 | 2 47635 53.0500 36.7867 0002150 91.8656 49.7798 15.86733893 2829 |
Live tracking and technical data element details for STARLINK-2012 (NORAD 47635). STARLINK-2012 can be tracked NOW for your location showing map with azimuth and elevation plus other details from your city location.
Track the satellite on the map from your city or location and see movement details for azimuth, elevation, latitude, longitude, range, height, and movement on the map or in text.
IsCatalogInMostPopularTable: catalog: 47635, numindb: 4
Update: records affected: 1
GetName: 47635 STARLINK-2012
Hit Count: updated at: Mon, 01 Mar 2021 15:55:58 GMT